New Haven, CT

10:55 AM EDT on June 22, 2017 (GMT -0400)
Tweed-New Haven

Weather History for KHVN - October, 2012

Change the Weather History Date:

Monday, October 1, 2012

  Actual Average Record
Temperature  
Mean Temperature 62 °F -  
Max Temperature 71 °F 65 °F 85 °F (1986)
Min Temperature 53 °F 49 °F 40 °F (1981)
Degree Days  
Heating Degree Days 4    
Growing Degree Days 12 (Base 50)    
Moisture  
Dew Point 50 °F    
Average Humidity 68    
Maximum Humidity 88    
Minimum Humidity 51    
Precipitation  
Precipitation 0.00 in - - ()
Sea Level Pressure  
Sea Level Pressure 29.86 in    
Wind  
Wind Speed 6 mph (West)    
Max Wind Speed 12 mph    
Max Gust Speed 21 mph    
Visibility 10 miles    
Events      
Averages and records for this station are not official NWS values.
T = Trace of Precipitation, MM = Missing Value Source: NWS Daily Summary

Daily Weather History Graph

Daily Weather History Graph

Search for Another Location

Airport or City:

Trip Planner

Search our weather history database for the weather conditions in past years. The results will help you decide how hot, cold, wet, or windy it might be!

Date:

Astronomy

Oct. 01, 2012 Rise Set
Actual Time 6:48 AM EDT 6:32 PM EDT
Civil Twilight 6:21 AM EDT 7:00 PM EDT
Nautical Twilight 5:49 AM EDT 7:32 PM EDT
Astronomical Twilight 5:16 AM EDT 8:04 PM EDT
Moon 7:06 PM EDT (10/1) 8:16 AM EDT (10/1)
Length of Visible Light 12h 38m
Length of Day
11h 43m
Full, 98% of the Moon is Illuminated
Oct 1
Full
Oct 8
Last Quarter
Oct 15
New
Oct 21
First Quarter
Oct 29
Full

Hourly Weather History & Observations

Time (EDT) Temp. Dew Point Humidity Pressure Visibility Wind Dir Wind Speed Gust Speed Precip Events Conditions
12:53 AM 57.0 °F 48.0 °F 72% 29.79 in 10.0 mi SW 5.8 mph - N/A   Clear
1:53 AM 55.9 °F 48.0 °F 75% 29.79 in 10.0 mi West 5.8 mph - N/A   Clear
2:53 AM 55.9 °F 48.0 °F 75% 29.79 in 10.0 mi WSW 6.9 mph - N/A   Clear
3:53 AM 55.0 °F 48.0 °F 77% 29.79 in 10.0 mi WSW 11.5 mph 19.6 mph N/A   Clear
4:53 AM 55.0 °F 48.0 °F 77% 29.80 in 10.0 mi WSW 8.1 mph - N/A   Clear
5:53 AM 53.6 °F 48.2 °F 82% 29.80 in 10.0 mi Variable 6.9 mph 18.4 mph N/A   Clear
6:53 AM 54.0 °F 48.0 °F 80% 29.81 in 10.0 mi WSW 6.9 mph - N/A   Clear
7:53 AM 55.9 °F 48.0 °F 75% 29.82 in 10.0 mi West 9.2 mph - N/A   Clear
8:53 AM 57.0 °F 46.9 °F 69% 29.83 in 10.0 mi WSW 8.1 mph - N/A   Partly Cloudy
9:53 AM 61.0 °F 48.0 °F 62% 29.84 in 10.0 mi Variable 5.8 mph - N/A   Clear
10:53 AM 63.0 °F 46.9 °F 56% 29.84 in 10.0 mi West 11.5 mph 20.7 mph N/A   Scattered Clouds
11:53 AM 64.9 °F 50.0 °F 58% 29.84 in 10.0 mi West 8.1 mph - N/A   Clear
12:53 PM 64.9 °F 48.0 °F 54% 29.85 in 10.0 mi WSW 10.4 mph 18.4 mph N/A   Scattered Clouds
1:53 PM 68.0 °F 50.0 °F 52% 29.84 in 10.0 mi Variable 6.9 mph - N/A   Scattered Clouds
2:53 PM 69.1 °F 51.1 °F 53% 29.85 in 10.0 mi Variable 6.9 mph - N/A   Scattered Clouds
3:53 PM 70.0 °F 51.1 °F 51% 29.86 in 10.0 mi West 5.8 mph - N/A   Scattered Clouds
4:53 PM 69.8 °F 51.8 °F 53% 29.86 in 10.0 mi West 6.9 mph - N/A   Scattered Clouds
5:53 PM 69.1 °F 52.0 °F 54% 29.89 in 10.0 mi Variable 4.6 mph - N/A   Clear
6:53 PM 66.0 °F 52.0 °F 60% 29.91 in 10.0 mi Calm Calm - N/A   Clear
7:53 PM 64.0 °F 53.1 °F 67% 29.94 in 10.0 mi NNW 3.5 mph - N/A   Clear
8:53 PM 57.0 °F 52.0 °F 83% 29.96 in 10.0 mi Calm Calm - N/A   Clear
9:53 PM 59.0 °F 52.0 °F 78% 29.96 in 10.0 mi NNW 3.5 mph - N/A   Clear
10:53 PM 55.4 °F 51.8 °F 88% 29.97 in 10.0 mi Calm Calm - N/A   Clear
11:53 PM 55.9 °F 52.0 °F 87% 29.96 in 10.0 mi Calm Calm - N/A   Clear